This is the latest recevied weather packets stored in our database for station/object W8DRH-13. If no packets are shown the sender has not sent any weather packets the latest 10 day(s).
| Time | Temp. | Humidity | Pressure | Rain* | Wind** | Luminosity | Snow |
|---|---|---|---|---|---|---|---|
| 1777244420 | 15.56° C | 74% | 1016.3 hPa | 0 mm | - | 128 W/m² | - |
| 1777244116 | 15° C | 75% | 1016.3 hPa | 0 mm | - | 114 W/m² | - |
| 1777243816 | 15° C | 74% | 1016.5 hPa | 0 mm | - | 103 W/m² | - |
| 1777243511 | 15.56° C | 74% | 1016.4 hPa | 0 mm | - | 117 W/m² | - |
| 1777243207 | 15.56° C | 73% | 1016.6 hPa | 0 mm | - | 150 W/m² | - |
| 1777242903 | 15.56° C | 73% | 1016.4 hPa | 0 mm | - | 163 W/m² | - |
| 1777242601 | 15.56° C | 74% | 1016.4 hPa | 0 mm | - | 156 W/m² | - |
| 1777242296 | 15.56° C | 73% | 1016.4 hPa | 0 mm | - | 143 W/m² | - |
| 1777241994 | 15.56° C | 73% | 1016.4 hPa | 0 mm | - | 216 W/m² | - |
| 1777241690 | 15.56° C | 73% | 1016.6 hPa | 0 mm | - | 240 W/m² | - |
| 1777241388 | 15.56° C | 74% | 1016.6 hPa | 0 mm | - | 243 W/m² | - |
| 1777241085 | 15.56° C | 73% | 1016.4 hPa | 0 mm | - | 264 W/m² | - |
| 1777240783 | 15.56° C | 73% | 1016.5 hPa | 0 mm | - | 296 W/m² | - |
| 1777240481 | 15.56° C | 73% | 1016.4 hPa | 0 mm | - | 318 W/m² | - |
| 1777240178 | 15.56° C | 74% | 1016.6 hPa | 0 mm | - | 321 W/m² | - |
| 1777239876 | 15.56° C | 74% | 1016.5 hPa | 0 mm | - | 333 W/m² | - |
| 1777239573 | 15.56° C | 74% | 1016.5 hPa | 0 mm | - | 332 W/m² | - |
| 1777239269 | 15.56° C | 74% | 1016.7 hPa | 0 mm | - | 364 W/m² | - |
| 1777238967 | 15.56° C | 74% | 1016.6 hPa | 0 mm | - | 370 W/m² | - |
| 1777238663 | 15.56° C | 74% | 1016.5 hPa | 0 mm | - | 403 W/m² | - |
| 1777238360 | 15.56° C | 74% | 1016.4 hPa | 0 mm | - | 415 W/m² | - |
| 1777238056 | 15.56° C | 74% | 1016.4 hPa | 0 mm | - | 392 W/m² | - |
| 1777237753 | 15.56° C | 74% | 1016.3 hPa | 0 mm | - | 437 W/m² | - |
| 1777237450 | 15.56° C | 75% | 1016.1 hPa | 0 mm | - | 473 W/m² | - |
| 1777237148 | 15.56° C | 75% | 1016.1 hPa | 0 mm | - | 495 W/m² | - |
* Rain latest hour (hover to see other rain measurements)
** Current wind speed in m/s (hover to see current wind gust speed)